Starlink 30851

operational
NORAD ID: 58215 Int'l Des: 2023-170 Owner: SPXS Country: US Constellation: starlink
LEOCIRCULAR

关于 Starlink 30851

正在加载描述...

实时位置

正在加载3D地球...

即将过境

高度历史

Altitude vs Time

uPlot chart will show altitude changes over time

两行轨道根数

1 58215U 23170K 25305.34128916 -.00000354 00000-0 -11144-4 0 9992
2 58215 43.0039 173.2356 0001355 266.0754 93.9934 15.02522655110971
Epoch: Nov 1, 2025 • Age: 32 hours

当前状态

高度 563.2 km
速度 7.59 km/s
星下点 43.16°N, 33.62°W
发射日期 Nov 4, 2023
运行时间 1.9 years
类型 internet

技术详情

分类 Payload
质量 730.00 kg
干质量 700.00 kg
总质量 730.00 kg
长度 0.30 m
直径 4.10 m
跨度 29.00 m
形状 Box + pan
制造商 SPXS
平台类型 Starlink V2M
阶段状态 In Orbit
所有者/国家 SPXS/US

大型星座

Loading constellations...